Flag for Italy Weather past 2 weeks in Naples, Italy

Now
61 °F

Passing clouds.


Feels Like: 61 °F
Forecast: 43 / 60 °F
Wind: 3 mph from North

Location: Naples / Capodichino

Current Time: Feb 28, 2015 at 2:57:20 PM

Latest Report: Feb 28, 2015 at 2:20 PM


Visibility: N/A

Pressure: 29.98 "Hg

Humidity: 55%

Dew point: 45 °F

Location of NaplesLocation

Historic Weather in Naples — Graph

°F

Naples temperature yesterday

Maximum temperature yesterday: 54 °F (at 9:50 AM)
Minimum temperature yesterday: 46 °F (at 10:50 PM)
Average temperature yesterday: 51 °F

Past Weeks' High & Low Weather Summary

 TemperatureHumidityPressure
High61 °F (Feb 17, 12:20 PM)100% (Feb 22, 7:50 AM)30.48 "Hg (Feb 22, 7:50 AM)
Low36 °F (Feb 20, 4:20 AM)29% (Feb 19, 3:20 PM)29.36 "Hg (Feb 22, 12:20 PM)
Average51 °F72%29.91 "Hg
* Reported Feb 13 1:20 PM — Feb 28 1:20 PM, Naples, Weather by CustomWeather, © 2015

Note: Actual official high and low records may vary slightly from our data, if they occured in-between our weather recording intervals... More about our weather records

Advertising

Naples weather history for previous 24 hours

 ConditionsComfort  
Time TempWeatherWind HumidityBarometerVisibility
1:20 PM
Sat, Feb 28
59 °FScattered clouds.6 mph55%29.98 "HgN/A
12:50 PM57 °FScattered clouds.7 mph59%29.98 "HgN/A
12:20 PM57 °FScattered clouds.5 mph55%29.98 "HgN/A
11:50 AM59 °FPassing clouds.2 mph51%29.98 "HgN/A
11:20 AM57 °FSunny.2 mph51%29.98 "Hg10 mi
10:50 AM55 °FSunny.2 mph59%29.98 "Hg10 mi
10:20 AM54 °FPassing clouds.3 mph67%29.98 "HgN/A
9:50 AM52 °FPassing clouds.5 mph72%29.98 "HgN/A
8:50 AM52 °FSunny.2 mph72%29.98 "Hg10 mi
8:20 AM48 °FSunny.2 mph82%29.95 "Hg10 mi
7:50 AM46 °FPassing clouds.5 mph87%29.95 "HgN/A
7:20 AM41 °FClear.3 mph93%29.92 "Hg5 mi
6:50 AM41 °FClear.2 mph93%29.92 "Hg5 mi
6:20 AM41 °FPassing clouds.3 mph93%29.92 "HgN/A
5:50 AM41 °FPassing clouds.5 mph87%29.92 "HgN/A
5:20 AM39 °FPassing clouds.5 mph93%29.92 "HgN/A
4:50 AM39 °FPassing clouds.3 mph93%29.92 "HgN/A
3:50 AM43 °FPassing clouds.3 mph93%29.89 "HgN/A
3:20 AM45 °FPassing clouds.3 mph87%29.89 "HgN/A
2:50 AM45 °FPassing clouds.2 mph87%29.89 "HgN/A
2:20 AM41 °FPassing clouds.5 mph93%29.92 "HgN/A
1:50 AM43 °FPassing clouds.5 mph87%29.89 "HgN/A
1:20 AM46 °FPassing clouds.2 mph82%29.89 "HgN/A
12:50 AM46 °FPassing clouds.5 mph82%29.89 "HgN/A
12:20 AM46 °FPassing clouds.5 mph82%29.89 "HgN/A
11:50 PM
Fri, Feb 27
48 °FPassing clouds.5 mph76%29.89 "HgN/A
11:20 PM48 °FPassing clouds.5 mph76%29.89 "HgN/A
10:50 PM46 °FPassing clouds.3 mph82%29.89 "HgN/A
10:20 PM50 °FPassing clouds.3 mph71%29.89 "HgN/A
9:50 PM50 °FPassing clouds.5 mph76%29.89 "HgN/A
9:20 PM50 °FPassing clouds.7 mph76%29.86 "HgN/A
8:50 PM50 °FPassing clouds.7 mph76%29.86 "HgN/A
8:20 PM50 °FPassing clouds.8 mph76%29.86 "HgN/A
7:50 PM50 °FPassing clouds.6 mph76%29.83 "HgN/A
7:20 PM52 °FPassing clouds.7 mph67%29.83 "HgN/A
6:50 PM50 °FPassing clouds.7 mph76%29.83 "HgN/A
6:20 PM50 °FPassing clouds.6 mph76%29.80 "HgN/A
5:50 PM52 °FPartly sunny.6 mph77%29.80 "HgN/A
5:20 PM52 °FPartly sunny.6 mph77%29.80 "HgN/A
4:50 PM52 °FLight rain. Partly sunny.5 mph77%29.80 "HgN/A
4:20 PM52 °FLight rain. Partly sunny.3 mph77%29.80 "HgN/A
3:50 PM52 °FRain. Partly sunny.2 mph77%29.80 "HgN/A
3:20 PM50 °FRain. Partly sunny.1 mph82%29.80 "HgN/A
2:50 PM52 °FLight rain. Partly sunny.3 mph77%29.77 "HgN/A
2:20 PM52 °FLight rain. Partly sunny.6 mph77%29.77 "HgN/A
Weather by CustomWeather, © 2015

See weather overviewHow to use our weather pages